CSCLB KABQ-KVNY

Flight info

Callsign CSCLB
Flight time N/A
Altitude 40000
Route ADYOS3 ZUN J6 EED JANNY5
Aircraft CL60/M-SBDE1E2E3FGHIJ1J4J5J7M3RWXYZ/LB1V1D1

Departure

Time 2026-05-06 13:54
Airport Albuquerque International Sunport (KABQ)

Arrival

Time N/A
Airport Van Nuys Airport (KVNY)
Time Latitude Longitude Altitude Speed Heading
2026-05-06 13:30 35.03734 -106.62015 5317 ft 0 kts 14°
2026-05-06 13:43 35.03735 -106.62014 5318 ft 0 kts 15°
2026-05-06 13:46 35.03745 -106.62009 5318 ft 4 kts 33°
2026-05-06 13:46 35.03769 -106.61969 5318 ft 7 kts 57°
2026-05-06 13:46 35.03815 -106.61970 5318 ft 7 kts 314°
2026-05-06 13:46 35.03856 -106.62026 5317 ft 10 kts 315°
2026-05-06 13:47 35.03934 -106.62050 5317 ft 13 kts 21°
2026-05-06 13:47 35.03974 -106.61945 5318 ft 16 kts 92°
2026-05-06 13:47 35.03973 -106.61792 5319 ft 12 kts 92°
2026-05-06 13:47 35.04020 -106.61750 5319 ft 12 kts 322°
2026-05-06 13:48 35.04101 -106.61735 5319 ft 14 kts
2026-05-06 13:48 35.04193 -106.61735 5319 ft 13 kts
2026-05-06 13:48 35.04246 -106.61667 5320 ft 14 kts 94°
2026-05-06 13:48 35.04245 -106.61536 5321 ft 16 kts 90°
2026-05-06 13:49 35.04245 -106.61390 5322 ft 18 kts 91°
2026-05-06 13:49 35.04242 -106.61227 5323 ft 20 kts 90°
2026-05-06 13:49 35.04247 -106.61081 5324 ft 16 kts 90°
2026-05-06 13:49 35.04243 -106.60932 5324 ft 18 kts 90°
2026-05-06 13:50 35.04241 -106.60763 5325 ft 20 kts 90°
2026-05-06 13:50 35.04240 -106.60593 5325 ft 18 kts 91°
2026-05-06 13:50 35.04258 -106.60438 5326 ft 18 kts 80°
2026-05-06 13:50 35.04258 -106.60274 5327 ft 20 kts 91°
2026-05-06 13:51 35.04258 -106.60113 5328 ft 19 kts 90°
2026-05-06 13:51 35.04257 -106.59941 5329 ft 21 kts 90°
2026-05-06 13:51 35.04255 -106.59753 5330 ft 23 kts 91°
2026-05-06 13:51 35.04254 -106.59552 5331 ft 22 kts 91°
2026-05-06 13:52 35.04252 -106.59362 5334 ft 23 kts 91°
2026-05-06 13:52 35.04252 -106.59159 5336 ft 24 kts 91°
2026-05-06 13:52 35.04250 -106.58977 5338 ft 15 kts 90°
2026-05-06 13:52 35.04256 -106.58854 5339 ft 12 kts 66°
2026-05-06 13:53 35.04330 -106.58819 5340 ft 12 kts 346°
2026-05-06 13:53 35.04402 -106.58894 5339 ft 15 kts 300°
2026-05-06 13:53 35.04418 -106.59023 5338 ft 22 kts 264°
2026-05-06 13:53 35.04419 -106.59555 5332 ft 108 kts 270°
2026-05-06 13:54 35.04416 -106.60783 5467 ft 170 kts 266°
2026-05-06 13:54 35.04378 -106.62305 6157 ft 192 kts 266°
2026-05-06 13:54 35.04358 -106.64018 6957 ft 216 kts 269°
2026-05-06 13:54 35.04356 -106.65947 7574 ft 243 kts 269°
2026-05-06 13:55 35.04357 -106.68117 8191 ft 268 kts 270°
2026-05-06 13:55 35.04358 -106.70418 8797 ft 275 kts 271°
2026-05-06 13:55 35.04359 -106.72742 9434 ft 275 kts 272°
2026-05-06 13:55 35.04360 -106.75064 10053 ft 275 kts 272°
2026-05-06 13:56 35.04360 -106.77424 10695 ft 289 kts 272°
2026-05-06 13:56 35.04365 -106.79955 11309 ft 309 kts 272°
2026-05-06 13:56 35.04409 -106.82597 11932 ft 315 kts 274°
2026-05-06 13:56 35.04504 -106.85261 12565 ft 316 kts 274°
2026-05-06 13:57 35.04600 -106.87951 13197 ft 319 kts 273°
2026-05-06 13:57 35.04694 -106.90652 13841 ft 322 kts 273°
2026-05-06 13:57 35.04733 -106.93392 14477 ft 327 kts 270°
2026-05-06 13:57 35.04658 -106.96162 15107 ft 330 kts 269°
2026-05-06 13:58 35.04575 -106.98964 15729 ft 333 kts 269°
2026-05-06 13:58 35.04492 -107.01796 16344 ft 335 kts 269°
2026-05-06 13:58 35.04408 -107.04633 16973 ft 338 kts 269°
2026-05-06 13:58 35.04321 -107.07499 17582 ft 340 kts 269°
2026-05-06 13:59 35.04234 -107.10380 18225 ft 343 kts 269°
2026-05-06 13:59 35.04145 -107.13293 18845 ft 347 kts 269°
2026-05-06 13:59 35.04056 -107.16233 19484 ft 350 kts 269°
2026-05-06 13:59 35.03964 -107.19203 20092 ft 353 kts 269°
2026-05-06 14:00 35.03871 -107.22197 20748 ft 356 kts 269°
2026-05-06 14:00 35.03776 -107.25242 21462 ft 364 kts 269°
2026-05-06 14:00 35.03680 -107.28323 22319 ft 367 kts 269°
2026-05-06 14:00 35.03585 -107.31423 23202 ft 368 kts 269°
2026-05-06 14:01 35.03488 -107.34538 23991 ft 371 kts 269°
2026-05-06 14:01 35.03390 -107.37677 24810 ft 372 kts 268°
2026-05-06 14:01 35.03291 -107.40810 25643 ft 371 kts 268°
2026-05-06 14:01 35.03192 -107.43939 26431 ft 371 kts 267°
2026-05-06 14:02 35.03092 -107.47065 27179 ft 371 kts 267°
2026-05-06 14:02 35.02986 -107.50232 27822 ft 372 kts 267°
2026-05-06 14:02 35.02882 -107.53407 28462 ft 372 kts 266°
2026-05-06 14:02 35.02781 -107.56593 29133 ft 372 kts 266°
2026-05-06 14:03 35.02676 -107.59784 29660 ft 374 kts 265°
2026-05-06 14:03 35.02569 -107.62952 30199 ft 374 kts 265°
2026-05-06 14:03 35.02460 -107.66159 30585 ft 379 kts 265°
2026-05-06 14:03 35.02347 -107.69417 30968 ft 383 kts 265°
2026-05-06 14:04 35.02236 -107.72686 31427 ft 384 kts 265°
2026-05-06 14:04 35.02124 -107.75954 31784 ft 387 kts 265°
2026-05-06 14:04 35.02011 -107.79262 32124 ft 389 kts 264°
2026-05-06 14:04 35.01897 -107.82556 32585 ft 387 kts 265°
2026-05-06 14:05 35.01782 -107.85845 32970 ft 387 kts 264°
2026-05-06 14:05 35.01668 -107.89101 33423 ft 385 kts 264°
2026-05-06 14:05 35.01553 -107.92341 33896 ft 382 kts 264°
2026-05-06 14:05 35.01439 -107.95556 34393 ft 379 kts 263°
2026-05-06 14:06 35.01324 -107.98748 34817 ft 378 kts 264°
2026-05-06 14:06 35.01207 -108.01943 35142 ft 378 kts 264°
2026-05-06 14:06 35.01089 -108.05143 35439 ft 379 kts 264°
2026-05-06 14:06 35.00971 -108.08340 35800 ft 378 kts 263°
2026-05-06 14:07 35.00852 -108.11530 36098 ft 378 kts 264°
2026-05-06 14:07 35.00732 -108.14729 36373 ft 379 kts 264°
2026-05-06 14:07 35.00611 -108.17934 36599 ft 381 kts 264°
2026-05-06 14:07 35.00488 -108.21151 36808 ft 382 kts 263°
2026-05-06 14:08 35.00364 -108.24381 37069 ft 382 kts 264°
2026-05-06 14:08 35.00240 -108.27608 37301 ft 383 kts 264°
2026-05-06 14:08 35.00114 -108.30832 37567 ft 382 kts 264°
2026-05-06 14:08 34.99989 -108.34054 37813 ft 381 kts 264°
2026-05-06 14:09 34.99862 -108.37274 38043 ft 381 kts 264°
2026-05-06 14:09 34.99734 -108.40500 38222 ft 382 kts 264°
2026-05-06 14:09 34.99605 -108.43733 38418 ft 382 kts 264°
2026-05-06 14:09 34.99475 -108.46973 38663 ft 382 kts 264°
2026-05-06 14:10 34.99344 -108.50203 38867 ft 382 kts 264°
2026-05-06 14:10 34.99213 -108.53437 39006 ft 383 kts 265°
2026-05-06 14:10 34.99080 -108.56680 39156 ft 383 kts 264°
2026-05-06 14:10 34.98946 -108.59914 39336 ft 383 kts 264°
2026-05-06 14:11 34.98811 -108.63159 39469 ft 384 kts 264°
2026-05-06 14:11 34.98675 -108.66429 39634 ft 385 kts 263°
2026-05-06 14:11 34.98398 -108.72966 39885 ft 387 kts 264°
2026-05-06 14:12 34.98258 -108.76245 40007 ft 388 kts 264°
2026-05-06 14:12 34.98118 -108.79523 40119 ft 390 kts 264°
2026-05-06 14:12 34.97829 -108.86159 40105 ft 396 kts 264°
2026-05-06 14:13 34.97535 -108.92881 40095 ft 400 kts 264°
2026-05-06 14:13 34.97234 -108.99656 40092 ft 403 kts 264°
2026-05-06 14:14 34.96928 -109.06464 40111 ft 404 kts 265°
2026-05-06 14:14 34.96619 -109.13280 40113 ft 405 kts 264°
2026-05-06 14:15 34.96233 -109.20109 40104 ft 405 kts 264°
2026-05-06 14:15 34.95776 -109.26935 40103 ft 405 kts 263°
2026-05-06 14:16 34.95318 -109.33755 40101 ft 405 kts 263°
2026-05-06 14:16 34.94857 -109.40579 40095 ft 405 kts 264°
2026-05-06 14:17 34.94394 -109.47391 40094 ft 404 kts 263°